Port Lavaca, TX

12:23 PM CST on November 20, 2017 (GMT -0600)
Port Lavaca

Weather History for KPKV - March, 2013

Change the Weather History Date:

Friday, March 8, 2013

  Actual Average (KVCT) Record (KVCT)
Temperature  
Mean Temperature 64 °F -  
Max Temperature 70 °F 73 °F 93 °F (1911)
Min Temperature 58 °F 51 °F 30 °F (1996)
Degree Days  
Heating Degree Days 1    
Growing Degree Days 14 (Base 50)    
Moisture  
Dew Point 60 °F    
Average Humidity 85    
Maximum Humidity 94    
Minimum Humidity 73    
Precipitation  
Precipitation 0.00 in - - ()
Sea Level Pressure  
Sea Level Pressure 30.10 in    
Wind  
Wind Speed 10 mph (ESE)    
Max Wind Speed 20 mph    
Max Gust Speed 26 mph    
Visibility 10 miles    
Events      
Averages and records for this station are not official NWS values.
T = Trace of Precipitation, MM = Missing Value Source: NWS Daily Summary

Daily Weather History Graph

Daily Weather History Graph

Search for Another Location

Airport or City:

Trip Planner

Search our weather history database for the weather conditions in past years. The results will help you decide how hot, cold, wet, or windy it might be!

Date:

Astronomy

Mar. 08, 2013 Rise Set
Actual Time 6:43 AM CST 6:31 PM CST
Civil Twilight 6:20 AM CST 6:54 PM CST
Nautical Twilight 5:53 AM CST 7:22 PM CST
Astronomical Twilight 5:25 AM CST 7:49 PM CST
Moon 4:15 AM CST (3/8) 3:39 PM CST (3/8)
Length of Visible Light 12h 34m
Length of Day
11h 47m
Waning Crescent, 11% of the Moon is Illuminated
Mar 8
Waning Crescent
Mar 11
New
Mar 19
First Quarter
Mar 27
Full
Apr 2
Last Quarter

Hourly Weather History & Observations

Time (CST) Temp. Dew Point Humidity Pressure Visibility Wind Dir Wind Speed Gust Speed Precip Events Conditions
12:15 AM 58.3 °F 56.3 °F 93% 30.15 in 10.0 mi ESE 6.9 mph - N/A   Scattered Clouds
12:35 AM 58.6 °F 56.3 °F 92% 30.14 in 10.0 mi East 8.1 mph - N/A   Scattered Clouds
12:55 AM 59.4 °F 57.0 °F 92% 30.14 in 10.0 mi East 5.8 mph - N/A   Mostly Cloudy
1:15 AM 60.1 °F 57.2 °F 90% 30.14 in 10.0 mi ESE 8.1 mph - N/A   Mostly Cloudy
1:55 AM 59.4 °F 56.8 °F 91% 30.13 in 10.0 mi East 6.9 mph - N/A   Scattered Clouds
2:15 AM 59.7 °F 57.4 °F 92% 30.12 in 10.0 mi ESE 10.4 mph - N/A   Clear
2:35 AM 60.6 °F 57.7 °F 90% 30.11 in 10.0 mi ESE 10.4 mph - N/A   Scattered Clouds
2:55 AM 60.3 °F 57.6 °F 91% 30.10 in 10.0 mi ESE 6.9 mph - N/A   Clear
3:15 AM 59.9 °F 57.6 °F 92% 30.10 in 10.0 mi ESE 6.9 mph - N/A   Clear
3:55 AM 60.3 °F 58.1 °F 93% 30.09 in 10.0 mi ESE 8.1 mph - N/A   Mostly Cloudy
4:15 AM 59.5 °F 57.6 °F 93% 30.10 in 10.0 mi East 5.8 mph - N/A   Mostly Cloudy
4:35 AM 59.5 °F 57.7 °F 94% 30.08 in 10.0 mi East 8.1 mph - N/A   Scattered Clouds
4:55 AM 59.9 °F 57.9 °F 93% 30.09 in 10.0 mi ESE 6.9 mph - N/A   Clear
5:15 AM 59.9 °F 57.9 °F 93% 30.10 in 10.0 mi ESE 5.8 mph - N/A   Clear
5:55 AM 59.9 °F 58.1 °F 94% 30.10 in 10.0 mi East 6.9 mph - N/A   Clear
6:35 AM 59.5 °F 57.7 °F 94% 30.11 in 10.0 mi ESE 6.9 mph - N/A   Scattered Clouds
6:55 AM 60.8 °F 59.0 °F 94% 30.11 in 10.0 mi East 5.8 mph - N/A   Overcast
7:15 AM 61.2 °F 59.2 °F 93% 30.12 in 10.0 mi ESE 5.8 mph - N/A   Overcast
7:35 AM 61.9 °F 59.9 °F 93% 30.12 in 10.0 mi ESE 6.9 mph - N/A   Overcast
7:55 AM 63.0 °F 60.1 °F 90% 30.12 in 10.0 mi ESE 9.2 mph - N/A   Overcast
8:15 AM 63.5 °F 60.4 °F 90% 30.13 in 10.0 mi ESE 10.4 mph - N/A   Overcast
8:35 AM 63.7 °F 60.8 °F 90% 30.13 in 10.0 mi ESE 9.2 mph - N/A   Overcast
8:55 AM 64.4 °F 61.0 °F 89% 30.14 in 10.0 mi ESE 10.4 mph - N/A   Overcast
9:15 AM 64.4 °F 60.8 °F 88% 30.15 in 10.0 mi ESE 9.2 mph - N/A   Overcast
9:35 AM 64.8 °F 61.0 °F 88% 30.15 in 10.0 mi ESE 11.5 mph - N/A   Overcast
9:55 AM 65.3 °F 61.2 °F 86% 30.15 in 10.0 mi ESE 12.7 mph - N/A   Overcast
10:15 AM 66.0 °F 61.5 °F 85% 30.15 in 10.0 mi ESE 11.5 mph - N/A   Overcast
10:35 AM 66.9 °F 61.5 °F 83% 30.14 in 10.0 mi ESE 16.1 mph - N/A   Scattered Clouds
10:55 AM 67.5 °F 61.5 °F 81% 30.15 in 10.0 mi ESE 15.0 mph - N/A   Clear
11:15 AM 67.3 °F 61.5 °F 82% 30.15 in 10.0 mi ESE 13.8 mph - N/A   Clear
11:35 AM 67.6 °F 61.5 °F 81% 30.16 in 10.0 mi ESE 13.8 mph - N/A   Mostly Cloudy
12:15 PM 68.9 °F 61.7 °F 78% 30.13 in 10.0 mi ESE 17.3 mph 20.7 mph N/A   Mostly Cloudy
12:35 PM 70.0 °F 61.7 °F 75% 30.12 in 10.0 mi ESE 17.3 mph - N/A   Scattered Clouds
12:55 PM 69.1 °F 61.2 °F 76% 30.11 in 10.0 mi ESE 16.1 mph 23.0 mph N/A   Scattered Clouds
1:15 PM 69.8 °F 61.3 °F 74% 30.10 in 10.0 mi ESE 17.3 mph - N/A   Scattered Clouds
1:35 PM 69.1 °F 61.2 °F 76% 30.08 in 10.0 mi ESE 16.1 mph 23.0 mph N/A   Clear
1:55 PM 70.3 °F 61.7 °F 74% 30.07 in 10.0 mi ESE 19.6 mph 26.5 mph N/A   Clear
2:15 PM 69.1 °F 61.0 °F 75% 30.07 in 10.0 mi ESE 19.6 mph 24.2 mph N/A   Clear
2:35 PM 68.5 °F 60.8 °F 76% 30.07 in 10.0 mi ESE 17.3 mph - N/A   Scattered Clouds
2:55 PM 68.9 °F 60.8 °F 75% 30.07 in 10.0 mi ESE 18.4 mph 24.2 mph N/A   Mostly Cloudy
3:15 PM 69.8 °F 61.0 °F 73% 30.07 in 10.0 mi ESE 17.3 mph 21.9 mph N/A   Scattered Clouds
3:35 PM 68.2 °F 60.4 °F 76% 30.08 in 10.0 mi ESE 17.3 mph - N/A   Mostly Cloudy
3:55 PM 68.0 °F 60.8 °F 78% 30.07 in 10.0 mi ESE 17.3 mph - N/A   Scattered Clouds
4:15 PM 68.5 °F 60.6 °F 76% 30.08 in 10.0 mi ESE 16.1 mph - N/A   Clear
4:35 PM 67.1 °F 60.1 °F 78% 30.10 in 10.0 mi ESE 13.8 mph - N/A   Clear
4:55 PM 66.4 °F 60.1 °F 80% 30.11 in 10.0 mi ESE 11.5 mph - N/A   Clear
5:15 PM 66.2 °F 60.1 °F 81% 30.10 in 10.0 mi ESE 13.8 mph 18.4 mph N/A   Scattered Clouds
5:35 PM 65.8 °F 59.9 °F 81% 30.09 in 10.0 mi East 12.7 mph 17.3 mph N/A   Scattered Clouds
5:55 PM 65.7 °F 59.9 °F 82% 30.10 in 10.0 mi ESE 13.8 mph - N/A   Clear
6:15 PM 65.3 °F 59.5 °F 82% 30.08 in 10.0 mi East 16.1 mph - N/A   Clear
6:35 PM 64.8 °F 59.7 °F 84% 30.07 in 10.0 mi ESE 16.1 mph - N/A   Clear
6:55 PM 64.6 °F 59.5 °F 84% 30.07 in 10.0 mi ESE 15.0 mph 20.7 mph N/A   Clear
7:15 PM 64.4 °F 59.5 °F 84% 30.06 in 10.0 mi ESE 16.1 mph 19.6 mph N/A   Scattered Clouds
7:35 PM 64.4 °F 59.5 °F 84% 30.06 in 10.0 mi ESE 16.1 mph 23.0 mph N/A   Clear
7:55 PM 63.9 °F 59.7 °F 86% 30.07 in 10.0 mi ESE 17.3 mph - N/A   Clear
8:15 PM 63.5 °F 59.7 °F 87% 30.06 in 10.0 mi ESE 15.0 mph - N/A   Clear
8:35 PM 63.1 °F 59.9 °F 89% 30.06 in 10.0 mi ESE 13.8 mph - N/A   Clear
8:55 PM 63.3 °F 59.9 °F 89% 30.06 in 10.0 mi ESE 15.0 mph - N/A   Clear
9:15 PM 63.3 °F 59.9 °F 89% 30.06 in 10.0 mi ESE 13.8 mph - N/A   Clear
9:35 PM 63.5 °F 60.1 °F 89% 30.07 in 10.0 mi ESE 11.5 mph - N/A   Clear
9:55 PM 63.9 °F 60.3 °F 88% 30.06 in 10.0 mi ESE 9.2 mph - N/A   Scattered Clouds
10:15 PM 64.0 °F 60.3 °F 87% 30.06 in 10.0 mi ESE 9.2 mph - N/A   Overcast
10:55 PM 64.8 °F 60.8 °F 87% 30.06 in 10.0 mi SE 8.1 mph - N/A   Scattered Clouds
11:15 PM 66.0 °F 60.8 °F 83% 30.06 in 10.0 mi SE 11.5 mph - N/A   Mostly Cloudy
11:35 PM 66.0 °F 60.8 °F 83% 30.05 in 10.0 mi SE 13.8 mph - N/A   Scattered Clouds
11:55 PM 65.8 °F 60.8 °F 84% 30.04 in 10.0 mi SE 10.4 mph - N/A   Scattered Clouds